Find Starlink 6085

NORAD ID: 57115 Int'l Des: 2023-090 Owner: SPXS Country: US Constellation: starlink operational
LEOCIRCULAR

現在のビュー

3D地球を読み込み中...

About Starlink 6085

Starlink 6085 (NORAD 57115) is a starlink constellation satellite (v1.5) launched Jun 23, 2023 by SPXS of US. It operates in LEO, CIRCULAR orbit with a mass of 305.00 kg.

Starlink 6085について

説明を読み込み中...

次回通過

Passes for default location (London). Set your location on the main map for personalized predictions.

高度履歴

Loading altitude history...

軌道要素

1 57115U 23090Q 26166.04383385 .00032761 00000-0 16139-2 0 9999
2 57115 42.9985 83.9630 0017958 113.9229 246.3502 15.17254397165316
Epoch: Jun 15, 2026 • Age: 20 hours

現在のステータス

高度 538.5 km
速度 7.59 km/s
衛星直下点 -43.01°S, 132.78°E
打ち上げ日 Jun 23, 2023
運用期間 2.9 years
タイプ internet

技術仕様

分類 Payload
質量 305.00 kg
乾燥質量 290.00 kg
総質量 305.00 kg
長さ 0.20 m
直径 2.80 m
スパン 9.00 m
形状 Box + pan
製造者 SPXS
バスタイプ Starlink
フェーズステータス In Orbit
所有者/国 SPXS/US

Most Searched